TimeAKDT,TemperatureF,Dew PointF,Humidity,Sea Level PressureIn,VisibilityMPH,Wind Direction,Wind SpeedMPH,Gust SpeedMPH,PrecipitationIn,Events,Conditions,WindDirDegrees,DateUTC
12:16 AM,55.4,53.6,94,30.05,10.0,Calm,Calm,-,N/A,,Overcast,0,2013-08-31 08:16:00
12:36 AM,55.4,53.6,94,30.05,7.0,Calm,Calm,-,N/A,,Overcast,0,2013-08-31 08:36:00
12:56 AM,55.4,53.6,94,30.05,10.0,Calm,Calm,-,N/A,,Overcast,0,2013-08-31 08:56:00
1:16 AM,55.4,53.6,94,30.05,2.5,Calm,Calm,-,N/A,,Overcast,0,2013-08-31 09:16:00
1:56 AM,55.4,51.8,88,30.05,5.0,Calm,Calm,-,N/A,,Overcast,0,2013-08-31 09:56:00
2:16 AM,55.4,53.6,94,30.05,10.0,Calm,Calm,-,N/A,,Overcast,0,2013-08-31 10:16:00
3:16 AM,55.4,51.8,88,30.06,8.0,Calm,Calm,-,N/A,,Overcast,0,2013-08-31 11:16:00
3:56 AM,55.4,51.8,88,30.06,7.0,Calm,Calm,-,N/A,,Overcast,0,2013-08-31 11:56:00
4:16 AM,53.6,51.8,94,30.06,10.0,Calm,Calm,-,N/A,,Overcast,0,2013-08-31 12:16:00
4:36 AM,53.6,51.8,94,30.06,9.0,Calm,Calm,-,N/A,,Overcast,0,2013-08-31 12:36:00
5:56 AM,53.6,51.8,94,30.06,7.0,Calm,Calm,-,N/A,,Overcast,0,2013-08-31 13:56:00
6:16 AM,53.6,51.8,94,30.06,7.0,Calm,Calm,-,N/A,,Overcast,0,2013-08-31 14:16:00
6:56 AM,55.4,51.8,88,30.07,5.0,Calm,Calm,-,0.01,,Overcast,0,2013-08-31 14:56:00
7:16 AM,55.4,53.6,94,30.07,5.0,Calm,Calm,-,N/A,,Overcast,0,2013-08-31 15:16:00
7:36 AM,55.4,53.6,94,30.07,5.0,Calm,Calm,-,0.01,,Overcast,0,2013-08-31 15:36:00
8:16 AM,55.4,53.6,94,30.08,4.0,Calm,Calm,-,N/A,,Overcast,0,2013-08-31 16:16:00
8:36 AM,55.4,53.6,94,30.08,4.0,Calm,Calm,-,N/A,,Overcast,0,2013-08-31 16:36:00
8:56 AM,55.4,53.6,94,30.08,3.0,Calm,Calm,-,N/A,,Overcast,0,2013-08-31 16:56:00
9:16 AM,53.6,51.8,94,30.08,3.0,Calm,Calm,-,N/A,,Overcast,0,2013-08-31 17:16:00
9:36 AM,55.4,51.8,88,30.08,3.0,Calm,Calm,-,N/A,,Overcast,0,2013-08-31 17:36:00
9:55 AM,55.4,53.6,94,30.08,7.0,Calm,Calm,-,N/A,Fog-Rain,Light Rain,0,2013-08-31 17:55:00
10:16 AM,55.4,53.6,94,30.08,7.0,Calm,Calm,-,N/A,,Overcast,0,2013-08-31 18:16:00
10:36 AM,55.4,53.6,94,30.08,7.0,Calm,Calm,-,N/A,,Overcast,0,2013-08-31 18:36:00
10:56 AM,57.2,53.6,88,30.08,10.0,Calm,Calm,-,N/A,,Overcast,0,2013-08-31 18:56:00
11:36 AM,57.2,53.6,88,30.08,10.0,North,3.5,-,N/A,,Overcast,350,2013-08-31 19:36:00
12:36 PM,57.2,53.6,88,30.08,10.0,North,3.5,-,N/A,,Mostly Cloudy,360,2013-08-31 20:36:00
1:16 PM,59.0,53.6,82,30.08,10.0,North,4.6,-,N/A,,Mostly Cloudy,10,2013-08-31 21:16:00
2:16 PM,-9999,-9999,N/A,30.07,10.0,Calm,Calm,-,N/A,,Mostly Cloudy,0,2013-08-31 22:16:00
2:36 PM,57.2,53.6,88,30.06,10.0,Calm,Calm,-,N/A,,Mostly Cloudy,0,2013-08-31 22:36:00
2:56 PM,59.0,53.6,82,30.06,10.0,Calm,Calm,-,N/A,,Overcast,0,2013-08-31 22:56:00
3:16 PM,60.8,55.4,82,30.06,10.0,Calm,Calm,-,N/A,,Overcast,0,2013-08-31 23:16:00
4:16 PM,60.8,55.4,82,30.04,10.0,Calm,Calm,-,N/A,,Mostly Cloudy,0,2013-09-01 00:16:00
4:36 PM,60.8,55.4,82,30.04,10.0,NE,3.5,-,N/A,,Mostly Cloudy,50,2013-09-01 00:36:00
4:56 PM,59.0,53.6,82,30.03,10.0,Calm,Calm,-,N/A,,Overcast,0,2013-09-01 00:56:00
5:16 PM,57.2,53.6,88,30.03,10.0,Calm,Calm,-,N/A,,Overcast,0,2013-09-01 01:16:00
5:36 PM,59.0,53.6,82,30.02,10.0,Calm,Calm,-,N/A,,Overcast,0,2013-09-01 01:36:00
5:56 PM,59.0,53.6,82,30.02,10.0,Calm,Calm,-,N/A,,Overcast,0,2013-09-01 01:56:00
6:16 PM,59.0,53.6,82,30.02,10.0,Calm,Calm,-,N/A,,Overcast,0,2013-09-01 02:16:00
6:36 PM,59.0,53.6,82,30.02,10.0,Calm,Calm,-,N/A,,Overcast,0,2013-09-01 02:36:00
7:16 PM,59.0,55.4,88,30.01,10.0,Calm,Calm,-,N/A,,Overcast,0,2013-09-01 03:16:00
7:56 PM,57.2,55.4,94,30.01,10.0,Calm,Calm,-,N/A,,Overcast,0,2013-09-01 03:56:00
8:16 PM,57.2,55.4,94,30.00,10.0,Calm,Calm,-,N/A,,Overcast,0,2013-09-01 04:16:00
8:36 PM,57.2,55.4,94,30.00,10.0,Calm,Calm,-,N/A,,Overcast,0,2013-09-01 04:36:00
9:56 PM,53.6,51.8,94,29.98,10.0,East,5.8,-,N/A,,Overcast,80,2013-09-01 05:56:00
10:16 PM,53.6,51.8,94,29.98,10.0,ENE,3.5,-,N/A,,Overcast,70,2013-09-01 06:16:00
10:36 PM,53.6,51.8,94,29.98,10.0,Calm,Calm,-,N/A,,Mostly Cloudy,0,2013-09-01 06:36:00
10:56 PM,53.6,51.8,94,29.97,10.0,Calm,Calm,-,N/A,,Mostly Cloudy,0,2013-09-01 06:56:00
11:16 PM,53.6,51.8,94,29.96,10.0,South,3.5,-,N/A,,Mostly Cloudy,170,2013-09-01 07:16:00
11:36 PM,53.6,51.8,94,29.96,10.0,Calm,Calm,-,N/A,,Overcast,0,2013-09-01 07:36:00
11:56 PM,53.6,51.8,94,29.96,10.0,Calm,Calm,-,N/A,,Overcast,0,2013-09-01 07:56:00